Regional Weather Roundup
Issued by NWS

Home | Current Version | Previous Version | Text Only | Print | Product List | Glossary Off
Versions: 1 2 3 4 5 6 7 8 9 10 11 12 13 14 15 16 17 18 19 20 21 22 23 24 25 26 27 28 29 30 31 32 33 34 35 36 37 38 39 40 41 42 43 44 45 46 47 48 49 50

000
ASUS43 KIND 191209
RWRIN

WEATHER ROUNDUP FOR INDIANA
NATIONAL WEATHER SERVICE INDIANAPOLIS IN
700 AM EST MON FEB 19 2018

NOTE: "FAIR" INDICATES FEW OR NO CLOUDS BELOW 12,000 FEET WITH NO
SIGNIFICANT WEATHER AND/OR OBSTRUCTIONS TO VISIBILITY.

* - STATION DOES NOT REPORT WEATHER SUCH AS PRECIPITATION OR FOG.

+ - STATION NOT QUALITY CONTROLLED BY THE NATIONAL WEATHER SERVICE.
    USE DATA WITH CAUTION...ESPECIALLY DEWPOINT AND RELATIVE
    HUMIDITY OBSERVATIONS.

INZ001>003-010>013-019-020-191300-
NORTHWEST INDIANA

CITY           SKY/WX    TMP DP  RH WIND       PRES   REMARKS
GARY /AIRPORT/ CLOUDY    41  41 100 SE3       29.93R
LA PORTE +     FOG       37  37 100 SW5       29.95R VSB 3/4 WCI  34
6HR MIN TEMP:  36; 6HR MAX TEMP:  39; 6HR PCP:  0.02;

MICHIGAN CITY+ CLOUDY    39  39 100 S10       29.94R WCI  32
MONTICELLO +   LGT RAIN  46  45  95 S10       29.94R
6HR MIN TEMP:  42; 6HR MAX TEMP:  47; 6HR PCP:  0.12;

RENSSELAER +   RAIN      45  41  87 S10       29.92F
VALPARAISO     FOG       40  39  97 S5        29.93R VSB 1/2 WCI  37
6HR MIN TEMP:  39; 6HR MAX TEMP:  41; 6HR PCP:  0.04;


$$

LMZ046-743>745-191300-
SOUTHERN LAKE MICHIGAN

STATION/POSITION TIME  TEMP    WIND        PRES    WAVE
                       AIR SEA DIR/SP/G            HT
                 (UTC) (F)     (DEG/KT/KT) (MB)    (FT)
BURNS HARBOR     1140   40     180/ 12/ 18 1013.9R
MICHIGAN CITY    1140   40     170/ 16/ 19   N/A

$$

INZ004-005-014>016-021>024-191300-
NORTH CENTRAL INDIANA

CITY           SKY/WX    TMP DP  RH WIND       PRES   REMARKS
ELKHART        CLOUDY    37  27  65 SW5       29.95  FOG     WCI  34
GOSHEN         CLOUDY    39  38  96 S8        29.93S FOG     WCI  33
6HR MIN TEMP:  37; 6HR MAX TEMP:  40; 6HR PCP:  0.12;

LOGANSPORT +   DRIZZLE   45  45 100 SW7       29.96R
PERU/GRISSOM   LGT RAIN  46  46 100 S12       29.95R
6HR MIN TEMP:  40; 6HR MAX TEMP:  46; 6HR PCP:  0.18;

ROCHESTER +    CLOUDY    45  45 100 S6        29.95R FOG
SOUTH BEND     CLOUDY    38  37  97 S9        29.94R FOG     WCI  31
6HR MIN TEMP:  37; 6HR MAX TEMP:  41; 6HR PCP:  0.04;

WARSAW +       MIX PCPN  39  39 100 S3        29.94S

$$

INZ006>009-017-018-025>027-191300-
NORTHEAST INDIANA

CITY           SKY/WX    TMP DP  RH WIND       PRES   REMARKS
AUBURN +       LGT RAIN  36  36 100 CALM      29.96S
FORT WAYNE     DRIZZLE   40  39  97 S9        29.96F FOG     WCI  34
6HR MIN TEMP:  36; 6HR MAX TEMP:  40; 6HR PCP:  0.24;

HUNTINGTON +   LGT RAIN  43  42  96 S7        29.95F
6HR MIN TEMP:  36; 6HR MAX TEMP:  43; 6HR PCP:  0.22;

KENDALLVILLE + CLOUDY    38  38 100 S7        29.94F FOG     WCI  33

$$

INZ028-029-035-036-043>045-051>053-191300-
WEST CENTRAL INDIANA

CITY           SKY/WX    TMP DP  RH WIND       PRES   REMARKS
CRAWFORDSVL +  CLOUDY    47  47 100 SW7       29.96S
6HR MIN TEMP:  39; 6HR MAX TEMP:  47; 6HR PCP:  0.57;

GREENCASTLE +  RAIN      50  50 100 S5        29.97F
LAFAYETTE      LGT RAIN  47  47 100 S6        29.94S
6HR MIN TEMP:  43; 6HR MAX TEMP:  47; 6HR PCP:  0.16;

TERRE HAUTE    CLOUDY    53  52  96 S15       29.95F
6HR MIN TEMP:  47; 6HR MAX TEMP:  53; 6HR PCP:  0.11;


$$

INZ030>032-037>040-046>048-054>057-064-065-191300-
CENTRAL INDIANA

CITY           SKY/WX    TMP DP  RH WIND       PRES   REMARKS
COLUMBUS       CLOUDY    50  48  93 S15       30.01
FISHERS *+     CLOUDY    45  45 100 CALM      30.00R
FRANKFORT +    RAIN      50  48  94 SW14G20   29.97S
6HR MIN TEMP:  43; 6HR MAX TEMP:  50; 6HR PCP:  0.21;

GREENWOOD *+   CLOUDY   N/A N/A N/A S3        30.00R
INDIANAPOLIS   RAIN      50  49  96 S7        29.99S FOG
6HR MIN TEMP:  42; 6HR MAX TEMP:  50; 6HR PCP:  0.10;

-EAGLE CREEK   RAIN      49  47  93 S3        29.98S FOG
6HR MIN TEMP:  44; 6HR MAX TEMP:  50; 6HR PCP:  0.33;

KOKOMO +       CLOUDY    46  45  93 S12       29.97S
6HR MIN TEMP:  40; 6HR MAX TEMP:  46; 6HR PCP:  0.11;

MARION +       CLOUDY    44  42  94 S12       29.97S FOG
MT COMFORT *+  CLOUDY    45  45 100 SW6       30.01R
SHELBYVILLE    CLOUDY    51  47  86 S15       29.99R
6HR MIN TEMP:  43; 6HR MAX TEMP:  51; 6HR PCP:  0.01;

ZIONSVILLE +   RAIN      46  46  99 S7        29.99R
6HR MIN TEMP:  41; 6HR MAX TEMP:  46; 6HR PCP:  0.91;


$$

INZ033-034-041-042-049-050-058-059-191300-
EAST CENTRAL INDIANA

CITY           SKY/WX    TMP DP  RH WIND       PRES   REMARKS
MUNCIE         LGT RAIN  50  47  89 SW14      29.98S FOG
6HR MIN TEMP:  44; 6HR MAX TEMP:  51; 6HR PCP:  0.49;

RICHMOND +     CLOUDY    45  45 100 S12       30.02R

$$

INZ060-061-067>069-081>083-085>088-191300-
SOUTHWEST INDIANA

CITY           SKY/WX    TMP DP  RH WIND       PRES   REMARKS
EVANSVILLE     CLOUDY    59  56  89 S15G25    30.03S
6HR MIN TEMP:  49; 6HR MAX TEMP:  59; 6HR PCP:  0.01;

HUNTINGBURG +  LGT RAIN  57  55  93 S17G24    30.03F
6HR MIN TEMP:  50; 6HR MAX TEMP:  57; 6HR PCP: TRACE;

WASHINGTON +   CLOUDY    55  53  91 S17       30.00R
6HR MIN TEMP:  47; 6HR MAX TEMP:  55;


$$

INZ062-063-066-070>080-084-089>092-191300-
SOUTH CENTRAL AND SOUTHEAST INDIANA

CITY           SKY/WX    TMP DP  RH WIND       PRES   REMARKS
BATESVILLE +   CLOUDY    52  52 100 MISG      30.02R
BEDFORD +      CLOUDY    57  52  82 S15G25    30.01S
BLOOMINGTON    CLOUDY    57  54  89 SW16G26   29.98S
6HR MIN TEMP:  43; 6HR MAX TEMP:  57; 6HR PCP:  0.11;

FRENCH LICK *+ CLOUDY    55 N/A N/A S12G21    30.03S
MADISON *+     CLOUDY    55  52  88 S12G18    30.07S
SEYMOUR +      CLOUDY    57  52  82 S15       30.03S

$$




USA.gov is the U.S. government's official web portal to all federal, state and local government web resources and services.